Location: *
(13.0000°N, 151.6000°E)
Time: 03:47:02
(UTC+00:00)

SWIFT - Pass Details

Date: 01 April 2020
Orbit: 545 x 560 km, 20.6° (Epoch: 24 May)

Event Time Altitude Azimuth Distance (km) Brightness Sun altitude
Exits shadow 19:13:00 10° 288° (WNW) 1,806 4.4 -9.6°
Maximum altitude 19:16:48 33° 353° (N) 930 3.5 -8.7°
Drops below altitude 10° 19:20:37 10° 58° (ENE) 1,809 6.2 -7.8°
Sets 19:23:04 0° 68° (ENE) 2,699 7.7 -7.2°
